Narsarsuaq, Greenland

8:14 AM -02 on July 21, 2017 (GMT -0200)
Narsarsuaq

Weather History for BGBW - September, 2013

Change the Weather History Date:

Monday, September 16, 2013

  Actual Average Record
Temperature  
Mean Temperature 44 °F -  
Max Temperature 50 °F 44 °F 57 °F (2010)
Min Temperature 37 °F 32 °F 32 °F (1998)
Degree Days  
Heating Degree Days 22    
Moisture  
Dew Point 31 °F    
Average Humidity 64    
Maximum Humidity 87    
Minimum Humidity 22    
Precipitation  
Precipitation 0.00 in 0.08 in - ()
Sea Level Pressure  
Sea Level Pressure 29.55 in    
Wind  
Wind Speed 7 mph ()    
Max Wind Speed 24 mph    
Max Gust Speed -    
Visibility 6.2 miles    
Events Rain    
Averages and records for this station are not official NWS values.
T = Trace of Precipitation, MM = Missing Value Source: Averaged Metar Reports

Daily Weather History Graph

Daily Weather History Graph

Search for Another Location

Airport or City:

Trip Planner

Search our weather history database for the weather conditions in past years. The results will help you decide how hot, cold, wet, or windy it might be!

Date:

Astronomy

Sep. 16, 2013 Rise Set
Actual Time 6:31 AM -02 7:20 PM -02
Civil Twilight 5:47 AM -02 8:03 PM -02
Nautical Twilight 4:53 AM -02 8:57 PM -02
Astronomical Twilight 3:51 AM -02 9:58 PM -02
Moon 5:56 PM -02 (9/16) 2:24 AM -02 (9/16)
Length of Visible Light 14h 16m
Length of Day
12h 48m
Waxing Gibbous, 89% of the Moon is Illuminated
Sep 16
Waxing Gibbous
Sep 19
Full
Sep 27
Last Quarter
Oct 4
New
Oct 11
First Quarter

Hourly Weather History & Observations

Time (-02) Temp. Windchill Dew Point Humidity Pressure Visibility Wind Dir Wind Speed Gust Speed Precip Events Conditions
12:50 AM 39.2 °F 37.0 °F 30.2 °F 70% 29.53 in 6.2 mi WSW 3.5 mph - N/A   Light Drizzle
1:00 AM 39 °F - 29 °F 58% 29.54 in 31 mi SSE 2.3 mph - - Rain Rain
1:50 AM 37.4 °F - 30.2 °F 75% 29.50 in 6.2 mi NNE 2.3 mph - N/A   Light Drizzle
2:50 AM 37.4 °F - 32.0 °F 81% 29.47 in 6.2 mi North 2.3 mph - N/A   Light Drizzle
4:50 AM 37.4 °F - 32.0 °F 81% 29.50 in 6.2 mi NW 2.3 mph - N/A   Light Drizzle
5:50 AM 39.2 °F - 33.8 °F 81% 29.50 in 6.2 mi ENE 2.3 mph - N/A   Mostly Cloudy
6:50 AM 37.4 °F 34.9 °F 33.8 °F 87% 29.50 in 6.2 mi West 3.5 mph - N/A   Mostly Cloudy
7:00 AM 38 °F - 33 °F 77% 29.52 in 28 mi West 3.5 mph - - Rain Drizzle
7:50 AM 39.2 °F - 35.6 °F 87% 29.50 in 6.2 mi ENE 1.2 mph - N/A Rain Light Rain
8:50 AM 41.0 °F 39.0 °F 35.6 °F 81% 29.50 in 6.2 mi NE 3.5 mph - N/A Rain Light Rain
9:50 AM 48.2 °F - 28.4 °F 46% 29.53 in 6.2 mi ENE 21.9 mph - N/A Rain Light Rain
10:00 AM 48 °F - 25 °F 28% 29.54 in 31 mi ENE 24.2 mph - -   Overcast
10:50 AM 48.2 °F - 28.4 °F 46% 29.53 in 6.2 mi ENE 18.4 mph - N/A Rain Light Rain
11:50 AM 48.2 °F - 26.6 °F 43% 29.56 in 6.2 mi East 19.6 mph - N/A Rain Light Rain
12:50 PM 50.0 °F - 26.6 °F 40% 29.56 in 6.2 mi East 19.6 mph - N/A Rain Light Rain
1:00 PM 50 °F - 23 °F 22% 29.57 in 25 mi East 20.7 mph - -   Clear
1:50 PM 50.0 °F - 26.6 °F 40% 29.56 in 6.2 mi East 18.4 mph - N/A Rain Light Rain
2:50 PM 50.0 °F - 26.6 °F 40% 29.59 in 6.2 mi East 16.1 mph - N/A   Overcast
3:50 PM 50.0 °F - 32.0 °F 50% 29.59 in 6.2 mi ENE 10.4 mph - N/A   Overcast
4:50 PM 41.0 °F 35.2 °F 35.6 °F 81% 29.59 in 6.2 mi WSW 9.2 mph - N/A   Overcast
5:50 PM 41.0 °F 39.0 °F 37.4 °F 87% 29.65 in 6.2 mi NNE 3.5 mph - N/A   Light Drizzle
6:50 PM 42.8 °F - 39.2 °F 87% 29.65 in 6.2 mi East 2.3 mph - N/A   Light Drizzle
7:00 PM 42 °F - 39 °F 83% 29.68 in 6 mi ESE 1.2 mph - - Rain Light Rain